Year,Month,Day,Hour,Minute,Value (Times are PST for temperature in C)
2016,07,02,00,00,13.60
2016,07,02,00,01,13.60
2016,07,02,00,02,13.60
2016,07,02,00,03,13.60
2016,07,02,00,04,13.50
2016,07,02,00,05,13.50
2016,07,02,00,06,13.50
2016,07,02,00,07,13.50
2016,07,02,00,08,13.50
2016,07,02,00,09,13.50
2016,07,02,00,10,13.50
2016,07,02,00,11,13.50
2016,07,02,00,12,13.50
2016,07,02,00,13,13.50
2016,07,02,00,14,13.50
2016,07,02,00,15,13.50
2016,07,02,00,16,13.50
2016,07,02,00,17,13.50
2016,07,02,00,18,13.50
2016,07,02,00,19,13.50
2016,07,02,00,20,13.50
2016,07,02,00,21,13.50
2016,07,02,00,22,13.40
2016,07,02,00,23,13.50
2016,07,02,00,24,13.40
2016,07,02,00,25,13.40
2016,07,02,00,26,13.40
2016,07,02,00,27,13.40
2016,07,02,00,28,13.40
2016,07,02,00,29,13.40
2016,07,02,00,30,13.40
2016,07,02,00,31,13.40
2016,07,02,00,32,13.40
2016,07,02,00,33,13.40
2016,07,02,00,34,13.40
2016,07,02,00,35,13.40
2016,07,02,00,36,13.40
2016,07,02,00,37,13.40
2016,07,02,00,38,13.40
2016,07,02,00,39,13.40
2016,07,02,00,40,13.30
2016,07,02,00,41,13.30
2016,07,02,00,42,13.30
2016,07,02,00,43,13.30
2016,07,02,00,44,13.30
2016,07,02,00,45,13.30
2016,07,02,00,46,13.30
2016,07,02,00,47,13.30
2016,07,02,00,48,13.30
2016,07,02,00,49,13.20
2016,07,02,00,50,13.20
2016,07,02,00,51,13.20
2016,07,02,00,52,13.20
2016,07,02,00,53,13.20
2016,07,02,00,54,13.20
2016,07,02,00,55,13.20
2016,07,02,00,56,13.20
2016,07,02,00,57,13.20
2016,07,02,00,58,13.10
2016,07,02,00,59,13.10
2016,07,02,01,00,13.10
2016,07,02,01,01,13.10
2016,07,02,01,02,13.10
2016,07,02,01,03,13.10
2016,07,02,01,04,13.10
2016,07,02,01,05,13.10
2016,07,02,01,06,13.10
2016,07,02,01,07,13.10
2016,07,02,01,08,13.10
2016,07,02,01,09,13.10
2016,07,02,01,10,13.00
2016,07,02,01,11,13.00
2016,07,02,01,12,13.00
2016,07,02,01,13,13.00
2016,07,02,01,14,13.00
2016,07,02,01,15,13.00
2016,07,02,01,16,13.00
2016,07,02,01,17,12.90
2016,07,02,01,18,12.90
2016,07,02,01,19,12.90
2016,07,02,01,20,12.90
2016,07,02,01,21,12.90
2016,07,02,01,22,12.90
2016,07,02,01,23,12.90
2016,07,02,01,24,12.90
2016,07,02,01,25,12.90
2016,07,02,01,26,12.90
2016,07,02,01,27,12.90
2016,07,02,01,28,12.90
2016,07,02,01,29,12.80
2016,07,02,01,30,12.80
2016,07,02,01,31,12.80
2016,07,02,01,32,12.80
2016,07,02,01,33,12.80
2016,07,02,01,34,12.80
2016,07,02,01,35,12.80
2016,07,02,01,36,12.80
2016,07,02,01,37,12.80
2016,07,02,01,38,12.80
2016,07,02,01,39,12.80
2016,07,02,01,40,12.80
2016,07,02,01,41,12.80
2016,07,02,01,42,12.80
2016,07,02,01,43,12.80
2016,07,02,01,44,12.80
2016,07,02,01,45,12.80
2016,07,02,01,46,12.80
2016,07,02,01,47,12.80
2016,07,02,01,48,12.80
2016,07,02,01,49,12.80
2016,07,02,01,50,12.80
2016,07,02,01,51,12.80
2016,07,02,01,52,12.80
2016,07,02,01,53,12.80
2016,07,02,01,54,12.80
2016,07,02,01,55,12.80
2016,07,02,01,56,12.80
2016,07,02,01,57,12.80
2016,07,02,01,58,12.80
2016,07,02,01,59,12.80
2016,07,02,02,00,12.80
2016,07,02,02,01,12.80
2016,07,02,02,02,12.80
2016,07,02,02,03,12.80
2016,07,02,02,04,12.80
2016,07,02,02,05,12.80
2016,07,02,02,06,12.80
2016,07,02,02,07,12.80
2016,07,02,02,08,12.80
2016,07,02,02,09,12.80
2016,07,02,02,10,12.80
2016,07,02,02,11,12.80
2016,07,02,02,12,12.80
2016,07,02,02,13,12.80
2016,07,02,02,14,12.80
2016,07,02,02,15,12.80
2016,07,02,02,16,12.80
2016,07,02,02,17,12.80
2016,07,02,02,18,12.80
2016,07,02,02,19,12.80
2016,07,02,02,20,12.80
2016,07,02,02,21,12.90
2016,07,02,02,22,12.90
2016,07,02,02,23,12.90
2016,07,02,02,24,12.90
2016,07,02,02,25,12.90
2016,07,02,02,26,12.90
2016,07,02,02,27,12.90
2016,07,02,02,28,12.90
2016,07,02,02,29,12.90
2016,07,02,02,30,12.90
2016,07,02,02,31,12.90
2016,07,02,02,32,12.90
2016,07,02,02,33,12.90
2016,07,02,02,34,12.90
2016,07,02,02,35,12.90
2016,07,02,02,36,12.90
2016,07,02,02,37,12.90
2016,07,02,02,38,12.90
2016,07,02,02,39,12.90
2016,07,02,02,40,12.90
2016,07,02,02,41,12.90
2016,07,02,02,42,12.90
2016,07,02,02,43,12.90
2016,07,02,02,44,12.90
2016,07,02,02,45,12.90
2016,07,02,02,46,12.90
2016,07,02,02,47,12.90
2016,07,02,02,48,12.90
2016,07,02,02,49,12.90
2016,07,02,02,50,12.90
2016,07,02,02,51,12.90
2016,07,02,02,52,12.90
2016,07,02,02,53,12.90
2016,07,02,02,54,12.90
2016,07,02,02,55,12.90
2016,07,02,02,56,12.90
2016,07,02,02,57,12.90
2016,07,02,02,58,13.00
2016,07,02,02,59,12.90
2016,07,02,03,00,13.00
2016,07,02,03,01,13.00
2016,07,02,03,02,13.00
2016,07,02,03,03,13.00
2016,07,02,03,04,13.00
2016,07,02,03,05,13.00
2016,07,02,03,06,13.00
2016,07,02,03,07,13.00
2016,07,02,03,08,13.00
2016,07,02,03,09,13.00
2016,07,02,03,10,13.00
2016,07,02,03,11,13.00
2016,07,02,03,12,13.00
2016,07,02,03,13,13.00
2016,07,02,03,14,13.00
2016,07,02,03,15,13.00
2016,07,02,03,16,13.00
2016,07,02,03,17,13.00
2016,07,02,03,18,13.00
2016,07,02,03,19,13.00
2016,07,02,03,20,13.00
2016,07,02,03,21,13.10
2016,07,02,03,22,13.10
2016,07,02,03,23,13.10
2016,07,02,03,24,13.10
2016,07,02,03,25,13.10
2016,07,02,03,26,13.10
2016,07,02,03,27,13.10
2016,07,02,03,28,13.20
2016,07,02,03,29,13.20
2016,07,02,03,30,13.20
2016,07,02,03,31,13.20
2016,07,02,03,32,13.20
2016,07,02,03,33,13.20
2016,07,02,03,34,13.20
2016,07,02,03,35,13.20
2016,07,02,03,36,13.20
2016,07,02,03,37,13.30
2016,07,02,03,38,13.30
2016,07,02,03,39,13.30
2016,07,02,03,40,13.30
2016,07,02,03,41,13.30
2016,07,02,03,42,13.30
2016,07,02,03,43,13.30
2016,07,02,03,44,13.30
2016,07,02,03,45,13.30
2016,07,02,03,46,13.30
2016,07,02,03,47,13.30
2016,07,02,03,48,13.30
2016,07,02,03,49,13.30
2016,07,02,03,50,13.30
2016,07,02,03,51,13.30
2016,07,02,03,52,13.30
2016,07,02,03,53,13.30
2016,07,02,03,54,13.40
2016,07,02,03,55,13.40
2016,07,02,03,56,13.40
2016,07,02,03,57,13.40
2016,07,02,03,58,13.40
2016,07,02,03,59,13.40
2016,07,02,04,00,13.40
2016,07,02,04,01,13.40
2016,07,02,04,02,13.40
2016,07,02,04,03,13.40
2016,07,02,04,04,13.40
2016,07,02,04,05,13.40
2016,07,02,04,06,13.40
2016,07,02,04,07,13.40
2016,07,02,04,08,13.50
2016,07,02,04,09,13.50
2016,07,02,04,10,13.50
2016,07,02,04,11,13.50
2016,07,02,04,12,13.60
2016,07,02,04,13,13.60
2016,07,02,04,14,13.60
2016,07,02,04,15,13.60
2016,07,02,04,16,13.50
2016,07,02,04,17,13.60
2016,07,02,04,18,13.50
2016,07,02,04,19,13.50
2016,07,02,04,20,13.50
2016,07,02,04,21,13.50
2016,07,02,04,22,13.50
2016,07,02,04,23,13.50
2016,07,02,04,24,13.40
2016,07,02,04,25,13.40
2016,07,02,04,26,13.40
2016,07,02,04,27,13.40
2016,07,02,04,28,13.40
2016,07,02,04,29,13.40
2016,07,02,04,30,13.40
2016,07,02,04,31,13.40
2016,07,02,04,32,13.40
2016,07,02,04,33,13.40
2016,07,02,04,34,13.30
2016,07,02,04,35,13.30
2016,07,02,04,36,13.30
2016,07,02,04,37,13.30
2016,07,02,04,38,13.30
2016,07,02,04,39,13.30
2016,07,02,04,40,13.30
2016,07,02,04,41,13.30
2016,07,02,04,42,13.30
2016,07,02,04,43,13.30
2016,07,02,04,44,13.30
2016,07,02,04,45,13.30
2016,07,02,04,46,13.30
2016,07,02,04,47,13.30
2016,07,02,04,48,13.30
2016,07,02,04,49,13.30
2016,07,02,04,50,13.30
2016,07,02,04,51,13.30
2016,07,02,04,52,13.30
2016,07,02,04,53,13.30
2016,07,02,04,54,13.30
2016,07,02,04,55,13.30
2016,07,02,04,56,13.30
2016,07,02,04,57,13.30
2016,07,02,04,58,13.30
2016,07,02,04,59,13.30
2016,07,02,05,00,13.30
2016,07,02,05,01,13.30
2016,07,02,05,02,13.30
2016,07,02,05,03,13.30
2016,07,02,05,04,13.30
2016,07,02,05,05,13.30
2016,07,02,05,06,13.30
2016,07,02,05,07,13.30
2016,07,02,05,08,13.30
2016,07,02,05,09,13.30
2016,07,02,05,10,13.30
2016,07,02,05,11,13.30
2016,07,02,05,12,13.30
2016,07,02,05,13,13.30
2016,07,02,05,14,13.30
2016,07,02,05,15,13.20
2016,07,02,05,16,13.20
2016,07,02,05,17,13.20
2016,07,02,05,18,13.20
2016,07,02,05,19,13.20
2016,07,02,05,20,13.20
2016,07,02,05,21,13.30
2016,07,02,05,22,13.30
2016,07,02,05,23,13.30
2016,07,02,05,24,13.30
2016,07,02,05,25,13.30
2016,07,02,05,26,13.30
2016,07,02,05,27,13.30
2016,07,02,05,28,13.30
2016,07,02,05,29,13.30
2016,07,02,05,30,13.30
2016,07,02,05,31,13.30
2016,07,02,05,32,13.30
2016,07,02,05,33,13.30
2016,07,02,05,34,13.30
2016,07,02,05,35,13.30
2016,07,02,05,36,13.30
2016,07,02,05,37,13.30
2016,07,02,05,38,13.30
2016,07,02,05,39,13.30
2016,07,02,05,40,13.30
2016,07,02,05,41,13.30
2016,07,02,05,42,13.30
2016,07,02,05,43,13.30
2016,07,02,05,44,13.30
2016,07,02,05,45,13.40
2016,07,02,05,46,13.40
2016,07,02,05,47,13.40
2016,07,02,05,48,13.40
2016,07,02,05,49,13.40
2016,07,02,05,50,13.40
2016,07,02,05,51,13.40
2016,07,02,05,52,13.40
2016,07,02,05,53,13.40
2016,07,02,05,54,13.40
2016,07,02,05,55,13.40
2016,07,02,05,56,13.40
2016,07,02,05,57,13.40
2016,07,02,05,58,13.40
2016,07,02,05,59,13.40
2016,07,02,06,00,13.40
2016,07,02,06,01,13.40
2016,07,02,06,02,13.50
2016,07,02,06,03,13.50
2016,07,02,06,04,13.50
2016,07,02,06,05,13.50
2016,07,02,06,06,13.50
2016,07,02,06,07,13.50
2016,07,02,06,08,13.50
2016,07,02,06,09,13.60
2016,07,02,06,10,13.60
2016,07,02,06,11,13.60
2016,07,02,06,12,13.60
2016,07,02,06,13,13.60
2016,07,02,06,14,13.60
2016,07,02,06,15,13.60
2016,07,02,06,16,13.60
2016,07,02,06,17,13.70
2016,07,02,06,18,13.70
2016,07,02,06,19,13.70
2016,07,02,06,20,13.70
2016,07,02,06,21,13.70
2016,07,02,06,22,13.70
2016,07,02,06,23,13.70
2016,07,02,06,24,13.80
2016,07,02,06,25,13.80
2016,07,02,06,26,13.80
2016,07,02,06,27,13.80
2016,07,02,06,28,13.90
2016,07,02,06,29,13.90
2016,07,02,06,30,13.90
2016,07,02,06,31,13.90
2016,07,02,06,32,13.90
2016,07,02,06,33,14.00
2016,07,02,06,34,14.00
2016,07,02,06,35,14.00
2016,07,02,06,36,14.10
2016,07,02,06,37,14.10
2016,07,02,06,38,14.10
2016,07,02,06,39,14.10
2016,07,02,06,40,14.10
2016,07,02,06,41,14.20
2016,07,02,06,42,14.20
2016,07,02,06,43,14.20
2016,07,02,06,44,14.20
2016,07,02,06,45,14.20
2016,07,02,06,46,14.20
2016,07,02,06,47,14.20
2016,07,02,06,48,14.30
2016,07,02,06,49,14.30
2016,07,02,06,50,14.30
2016,07,02,06,51,14.30
2016,07,02,06,52,14.30
2016,07,02,06,53,14.30
2016,07,02,06,54,14.30
2016,07,02,06,55,14.30
2016,07,02,06,56,14.30
2016,07,02,06,57,14.30
2016,07,02,06,58,14.30
2016,07,02,06,59,14.20
2016,07,02,07,00,14.20
2016,07,02,07,01,14.20
2016,07,02,07,02,14.20
2016,07,02,07,03,14.20
2016,07,02,07,04,14.20
2016,07,02,07,05,14.20
2016,07,02,07,06,14.20
2016,07,02,07,07,14.20
2016,07,02,07,08,14.20
2016,07,02,07,09,14.20
2016,07,02,07,10,14.20
2016,07,02,07,11,14.20
2016,07,02,07,12,14.20
2016,07,02,07,13,14.20
2016,07,02,07,14,14.20
2016,07,02,07,15,14.20
2016,07,02,07,16,14.20
2016,07,02,07,17,14.30
2016,07,02,07,18,14.30
2016,07,02,07,19,14.30
2016,07,02,07,20,14.30
2016,07,02,07,21,14.40
2016,07,02,07,22,14.40
2016,07,02,07,23,14.40
2016,07,02,07,24,14.50
2016,07,02,07,25,14.50
2016,07,02,07,26,14.60
2016,07,02,07,27,14.60
2016,07,02,07,28,14.70
2016,07,02,07,29,14.70
2016,07,02,07,30,14.80
2016,07,02,07,31,14.80
2016,07,02,07,32,14.90
2016,07,02,07,33,14.90
2016,07,02,07,34,15.00
2016,07,02,07,35,15.00
2016,07,02,07,36,15.10
2016,07,02,07,37,15.10
2016,07,02,07,38,15.10
2016,07,02,07,39,15.20
2016,07,02,07,40,15.20
2016,07,02,07,41,15.20
2016,07,02,07,42,15.30
2016,07,02,07,43,15.30
2016,07,02,07,44,15.40
2016,07,02,07,45,15.40
2016,07,02,07,46,15.50
2016,07,02,07,47,15.50
2016,07,02,07,48,15.60
2016,07,02,07,49,15.60
2016,07,02,07,50,15.60
2016,07,02,07,51,15.70
2016,07,02,07,52,15.70
2016,07,02,07,53,15.70
2016,07,02,07,54,15.80
2016,07,02,07,55,15.80
2016,07,02,07,56,15.80
2016,07,02,07,57,15.90
2016,07,02,07,58,15.90
2016,07,02,07,59,15.90
2016,07,02,08,00,16.00
2016,07,02,08,01,16.00
2016,07,02,08,02,16.10
2016,07,02,08,03,16.10
2016,07,02,08,04,16.10
2016,07,02,08,05,16.10
2016,07,02,08,06,16.20
2016,07,02,08,07,16.20
2016,07,02,08,08,16.20
2016,07,02,08,09,16.20
2016,07,02,08,10,16.20
2016,07,02,08,11,16.20
2016,07,02,08,12,16.20
2016,07,02,08,13,16.20
2016,07,02,08,14,16.20
2016,07,02,08,15,16.30
2016,07,02,08,16,16.30
2016,07,02,08,17,16.30
2016,07,02,08,18,16.30
2016,07,02,08,19,16.30
2016,07,02,08,20,16.30
2016,07,02,08,21,16.30
2016,07,02,08,22,16.40
2016,07,02,08,23,16.40
2016,07,02,08,24,16.40
2016,07,02,08,25,16.50
2016,07,02,08,26,16.50
2016,07,02,08,27,16.60
2016,07,02,08,28,16.60
2016,07,02,08,29,16.60
2016,07,02,08,30,16.70
2016,07,02,08,31,16.80
2016,07,02,08,32,16.80
2016,07,02,08,33,16.90
2016,07,02,08,34,16.90
2016,07,02,08,35,17.00
2016,07,02,08,36,17.10
2016,07,02,08,37,17.20
2016,07,02,08,38,17.30
2016,07,02,08,39,17.40
2016,07,02,08,40,17.50
2016,07,02,08,41,17.60
2016,07,02,08,42,17.70
2016,07,02,08,43,17.80
2016,07,02,08,44,17.90
2016,07,02,08,45,18.00
2016,07,02,08,46,18.10
2016,07,02,08,47,18.20
2016,07,02,08,48,18.30
2016,07,02,08,49,18.40
2016,07,02,08,50,18.50
2016,07,02,08,51,18.60
2016,07,02,08,52,18.70
2016,07,02,08,53,18.80
2016,07,02,08,54,18.90
2016,07,02,08,55,19.00
2016,07,02,08,56,19.10
2016,07,02,08,57,19.20
2016,07,02,08,58,19.30
2016,07,02,08,59,19.40
2016,07,02,09,00,19.50
2016,07,02,09,01,19.60
2016,07,02,09,02,19.70
2016,07,02,09,03,19.80
2016,07,02,09,04,19.80
2016,07,02,09,05,19.90
2016,07,02,09,06,19.90
2016,07,02,09,07,20.00
2016,07,02,09,08,20.00
2016,07,02,09,09,20.10
2016,07,02,09,10,20.10
2016,07,02,09,11,20.10
2016,07,02,09,12,20.20
2016,07,02,09,13,20.20
2016,07,02,09,14,20.30
2016,07,02,09,15,20.30
2016,07,02,09,16,20.40
2016,07,02,09,17,20.40
2016,07,02,09,18,20.50
2016,07,02,09,19,20.50
2016,07,02,09,20,20.60
2016,07,02,09,21,20.60
2016,07,02,09,22,20.60
2016,07,02,09,23,20.70
2016,07,02,09,24,20.70
2016,07,02,09,25,20.70
2016,07,02,09,26,20.70
2016,07,02,09,27,20.80
2016,07,02,09,28,20.80
2016,07,02,09,29,20.80
2016,07,02,09,30,20.80
2016,07,02,09,31,20.80
2016,07,02,09,32,20.80
2016,07,02,09,33,20.80
2016,07,02,09,34,20.80
2016,07,02,09,35,20.90
2016,07,02,09,36,20.90
2016,07,02,09,37,20.90
2016,07,02,09,38,20.90
2016,07,02,09,39,20.90
2016,07,02,09,40,21.00
2016,07,02,09,41,21.10
2016,07,02,09,42,21.20
2016,07,02,09,43,21.20
2016,07,02,09,44,21.30
2016,07,02,09,45,21.40
2016,07,02,09,46,21.40
2016,07,02,09,47,21.40
2016,07,02,09,48,21.40
2016,07,02,09,49,21.40
2016,07,02,09,50,21.40
2016,07,02,09,51,21.40
2016,07,02,09,52,21.30
2016,07,02,09,53,21.30
2016,07,02,09,54,21.30
2016,07,02,09,55,21.30
2016,07,02,09,56,21.20
2016,07,02,09,57,21.20
2016,07,02,09,58,21.20
2016,07,02,09,59,21.20
2016,07,02,10,00,21.20
2016,07,02,10,01,21.20
2016,07,02,10,02,21.20
2016,07,02,10,03,21.30
2016,07,02,10,04,21.30
2016,07,02,10,05,21.30
2016,07,02,10,06,21.30
2016,07,02,10,07,21.40
2016,07,02,10,08,21.40
2016,07,02,10,09,21.50
2016,07,02,10,10,21.60
2016,07,02,10,11,21.70
2016,07,02,10,12,21.80
2016,07,02,10,13,21.80
2016,07,02,10,14,21.90
2016,07,02,10,15,21.90
2016,07,02,10,16,21.90
2016,07,02,10,17,21.80
2016,07,02,10,18,21.90
2016,07,02,10,19,21.90
2016,07,02,10,20,21.90
2016,07,02,10,21,21.90
2016,07,02,10,22,22.00
2016,07,02,10,23,22.10
2016,07,02,10,24,22.10
2016,07,02,10,25,22.10
2016,07,02,10,26,22.10
2016,07,02,10,27,22.10
2016,07,02,10,28,22.00
2016,07,02,10,29,21.80
2016,07,02,10,30,21.70
2016,07,02,10,31,21.60
2016,07,02,10,32,21.50
2016,07,02,10,33,21.30
2016,07,02,10,34,21.20
2016,07,02,10,35,21.10
2016,07,02,10,36,20.90
2016,07,02,10,37,20.80
2016,07,02,10,38,20.70
2016,07,02,10,39,20.60
2016,07,02,10,40,20.60
2016,07,02,10,41,20.60
2016,07,02,10,42,20.50
2016,07,02,10,43,20.50
2016,07,02,10,44,20.50
2016,07,02,10,45,20.60
2016,07,02,10,46,20.70
2016,07,02,10,47,20.70
2016,07,02,10,48,20.70
2016,07,02,10,49,20.80
2016,07,02,10,50,20.80
2016,07,02,10,51,20.80
2016,07,02,10,52,20.80
2016,07,02,10,53,20.80
2016,07,02,10,54,20.80
2016,07,02,10,55,20.80
2016,07,02,10,56,20.80
2016,07,02,10,57,20.80
2016,07,02,10,58,20.90
2016,07,02,10,59,21.00
2016,07,02,11,00,21.10
2016,07,02,11,01,21.20
2016,07,02,11,02,21.20
2016,07,02,11,03,21.00
2016,07,02,11,04,20.90
2016,07,02,11,05,20.80
2016,07,02,11,06,20.70
2016,07,02,11,07,20.70
2016,07,02,11,08,20.60
2016,07,02,11,09,20.60
2016,07,02,11,10,20.60
2016,07,02,11,11,20.70
2016,07,02,11,12,20.80
2016,07,02,11,13,21.00
2016,07,02,11,14,21.20
2016,07,02,11,15,21.30
2016,07,02,11,16,21.30
2016,07,02,11,17,21.30
2016,07,02,11,18,21.40
2016,07,02,11,19,21.40
2016,07,02,11,20,21.40
2016,07,02,11,21,21.30
2016,07,02,11,22,21.20
2016,07,02,11,23,21.20
2016,07,02,11,24,21.10
2016,07,02,11,25,21.10
2016,07,02,11,26,21.10
2016,07,02,11,27,21.00
2016,07,02,11,28,21.10
2016,07,02,11,29,21.10
2016,07,02,11,30,21.20
2016,07,02,11,31,21.30
2016,07,02,11,32,21.50
2016,07,02,11,33,21.60
2016,07,02,11,34,21.70
2016,07,02,11,35,21.80
2016,07,02,11,36,21.90
2016,07,02,11,37,22.00
2016,07,02,11,38,22.10
2016,07,02,11,39,22.20
2016,07,02,11,40,22.30
2016,07,02,11,41,22.30
2016,07,02,11,42,22.30
2016,07,02,11,43,22.40
2016,07,02,11,44,22.40
2016,07,02,11,45,22.40
2016,07,02,11,46,22.30
2016,07,02,11,47,22.20
2016,07,02,11,48,22.10
2016,07,02,11,49,22.10
2016,07,02,11,50,22.10
2016,07,02,11,51,22.20
2016,07,02,11,52,22.30
2016,07,02,11,53,22.30
2016,07,02,11,54,22.30
2016,07,02,11,55,22.40
2016,07,02,11,56,22.30
2016,07,02,11,57,22.20
2016,07,02,11,58,22.20
2016,07,02,11,59,22.10
2016,07,02,12,00,22.10
2016,07,02,12,01,22.00
2016,07,02,12,02,21.90
2016,07,02,12,03,21.80
2016,07,02,12,04,21.80
2016,07,02,12,05,21.80
2016,07,02,12,06,21.70
2016,07,02,12,07,21.60
2016,07,02,12,08,21.60
2016,07,02,12,09,21.70
2016,07,02,12,10,21.80
2016,07,02,12,11,21.90
2016,07,02,12,12,21.90
2016,07,02,12,13,22.00
2016,07,02,12,14,22.00
2016,07,02,12,15,22.00
2016,07,02,12,16,22.00
2016,07,02,12,17,22.00
2016,07,02,12,18,22.00
2016,07,02,12,19,21.90
2016,07,02,12,20,21.80
2016,07,02,12,21,21.60
2016,07,02,12,22,21.50
2016,07,02,12,23,21.40
2016,07,02,12,24,21.40
2016,07,02,12,25,21.40
2016,07,02,12,26,21.40
2016,07,02,12,27,21.40
2016,07,02,12,28,21.40
2016,07,02,12,29,21.50
2016,07,02,12,30,21.60
2016,07,02,12,31,21.60
2016,07,02,12,32,21.70
2016,07,02,12,33,21.90
2016,07,02,12,34,22.00
2016,07,02,12,35,22.20
2016,07,02,12,36,22.30
2016,07,02,12,37,22.40
2016,07,02,12,38,22.30
2016,07,02,12,39,22.20
2016,07,02,12,40,22.20
2016,07,02,12,41,22.20
2016,07,02,12,42,22.30
2016,07,02,12,43,22.30
2016,07,02,12,44,22.40
2016,07,02,12,45,22.50
2016,07,02,12,46,22.60
2016,07,02,12,47,22.70
2016,07,02,12,48,22.80
2016,07,02,12,49,22.80
2016,07,02,12,50,22.90
2016,07,02,12,51,22.90
2016,07,02,12,52,22.90
2016,07,02,12,53,22.80
2016,07,02,12,54,22.70
2016,07,02,12,55,22.70
2016,07,02,12,56,22.60
2016,07,02,12,57,22.50
2016,07,02,12,58,22.40
2016,07,02,12,59,22.40
2016,07,02,13,00,22.40
2016,07,02,13,01,22.50
2016,07,02,13,02,22.60
2016,07,02,13,03,22.70
2016,07,02,13,04,22.80
2016,07,02,13,05,23.00
2016,07,02,13,06,23.10
2016,07,02,13,07,23.20
2016,07,02,13,08,23.30
2016,07,02,13,09,23.40
2016,07,02,13,10,23.50
2016,07,02,13,11,23.70
2016,07,02,13,12,23.80
2016,07,02,13,13,23.90
2016,07,02,13,14,23.90
2016,07,02,13,15,23.90
2016,07,02,13,16,23.80
2016,07,02,13,17,23.70
2016,07,02,13,18,23.60
2016,07,02,13,19,23.50
2016,07,02,13,20,23.40
2016,07,02,13,21,23.40
2016,07,02,13,22,23.40
2016,07,02,13,23,23.30
2016,07,02,13,24,23.30
2016,07,02,13,25,23.20
2016,07,02,13,26,23.10
2016,07,02,13,27,23.10
2016,07,02,13,28,23.10
2016,07,02,13,29,23.00
2016,07,02,13,30,23.00
2016,07,02,13,31,22.90
2016,07,02,13,32,23.00
2016,07,02,13,33,23.10
2016,07,02,13,34,23.20
2016,07,02,13,35,23.20
2016,07,02,13,36,23.20
2016,07,02,13,37,23.20
2016,07,02,13,38,23.20
2016,07,02,13,39,23.20
2016,07,02,13,40,23.30
2016,07,02,13,41,23.30
2016,07,02,13,42,23.40
2016,07,02,13,43,23.50
2016,07,02,13,44,23.50
2016,07,02,13,45,23.50
2016,07,02,13,46,23.40
2016,07,02,13,47,23.30
2016,07,02,13,48,23.30
2016,07,02,13,49,23.30
2016,07,02,13,50,23.20
2016,07,02,13,51,23.20
2016,07,02,13,52,23.10
2016,07,02,13,53,23.00
2016,07,02,13,54,23.00
2016,07,02,13,55,23.10
2016,07,02,13,56,23.10
2016,07,02,13,57,23.20
2016,07,02,13,58,23.20
2016,07,02,13,59,23.10
2016,07,02,14,00,23.10
2016,07,02,14,01,23.00
2016,07,02,14,02,23.00
2016,07,02,14,03,22.90
2016,07,02,14,04,22.80
2016,07,02,14,05,22.80
2016,07,02,14,06,22.90
2016,07,02,14,07,22.80
2016,07,02,14,08,22.60
2016,07,02,14,09,22.50
2016,07,02,14,10,22.40
2016,07,02,14,11,22.30
2016,07,02,14,12,22.30
2016,07,02,14,13,22.20
2016,07,02,14,14,22.20
2016,07,02,14,15,22.10
2016,07,02,14,16,22.10
2016,07,02,14,17,22.20
2016,07,02,14,18,22.20
2016,07,02,14,19,22.20
2016,07,02,14,20,22.10
2016,07,02,14,21,22.10
2016,07,02,14,22,22.10
2016,07,02,14,23,22.20
2016,07,02,14,24,22.30
2016,07,02,14,25,22.30
2016,07,02,14,26,22.30
2016,07,02,14,27,22.30
2016,07,02,14,28,22.20
2016,07,02,14,29,22.20
2016,07,02,14,30,22.20
2016,07,02,14,31,22.20
2016,07,02,14,32,22.20
2016,07,02,14,33,22.30
2016,07,02,14,34,22.40
2016,07,02,14,35,22.40
2016,07,02,14,36,22.30
2016,07,02,14,37,22.30
2016,07,02,14,38,22.20
2016,07,02,14,39,22.00
2016,07,02,14,40,21.90
2016,07,02,14,41,21.80
2016,07,02,14,42,21.70
2016,07,02,14,43,21.70
2016,07,02,14,44,21.70
2016,07,02,14,45,21.70
2016,07,02,14,46,21.60
2016,07,02,14,47,21.60
2016,07,02,14,48,21.60
2016,07,02,14,49,21.50
2016,07,02,14,50,21.50
2016,07,02,14,51,21.40
2016,07,02,14,52,21.30
2016,07,02,14,53,21.30
2016,07,02,14,54,21.30
2016,07,02,14,55,21.40
2016,07,02,14,56,21.50
2016,07,02,14,57,21.50
2016,07,02,14,58,21.50
2016,07,02,14,59,21.40
2016,07,02,15,00,21.50
2016,07,02,15,01,21.60
2016,07,02,15,02,21.70
2016,07,02,15,03,21.90
2016,07,02,15,04,22.00
2016,07,02,15,05,22.10
2016,07,02,15,06,22.00
2016,07,02,15,07,21.90
2016,07,02,15,08,21.80
2016,07,02,15,09,21.80
2016,07,02,15,10,21.80
2016,07,02,15,11,21.80
2016,07,02,15,12,21.80
2016,07,02,15,13,21.80
2016,07,02,15,14,21.80
2016,07,02,15,15,21.70
2016,07,02,15,16,21.60
2016,07,02,15,17,21.50
2016,07,02,15,18,21.40
2016,07,02,15,19,21.30
2016,07,02,15,20,21.30
2016,07,02,15,21,21.20
2016,07,02,15,22,21.20
2016,07,02,15,23,21.20
2016,07,02,15,24,21.20
2016,07,02,15,25,21.20
2016,07,02,15,26,21.20
2016,07,02,15,27,21.20
2016,07,02,15,28,21.20
2016,07,02,15,29,21.20
2016,07,02,15,30,21.20
2016,07,02,15,31,21.30
2016,07,02,15,32,21.40
2016,07,02,15,33,21.50
2016,07,02,15,34,21.70
2016,07,02,15,35,21.70
2016,07,02,15,36,21.80
2016,07,02,15,37,21.80
2016,07,02,15,38,21.70
2016,07,02,15,39,21.70
2016,07,02,15,40,21.70
2016,07,02,15,41,21.80
2016,07,02,15,42,21.80
2016,07,02,15,43,21.80
2016,07,02,15,44,21.80
2016,07,02,15,45,21.80
2016,07,02,15,46,21.80
2016,07,02,15,47,21.80
2016,07,02,15,48,21.80
2016,07,02,15,49,21.80
2016,07,02,15,50,21.90
2016,07,02,15,51,21.90
2016,07,02,15,52,22.00
2016,07,02,15,53,21.90
2016,07,02,15,54,21.80
2016,07,02,15,55,21.80
2016,07,02,15,56,21.70
2016,07,02,15,57,21.60
2016,07,02,15,58,21.60
2016,07,02,15,59,21.50
2016,07,02,16,00,21.50
2016,07,02,16,01,21.60
2016,07,02,16,02,21.60
2016,07,02,16,03,21.60
2016,07,02,16,04,21.60
2016,07,02,16,05,21.50
2016,07,02,16,06,21.40
2016,07,02,16,07,21.30
2016,07,02,16,08,21.30
2016,07,02,16,09,21.30
2016,07,02,16,10,21.40
2016,07,02,16,11,21.50
2016,07,02,16,12,21.60
2016,07,02,16,13,21.70
2016,07,02,16,14,21.80
2016,07,02,16,15,21.80
2016,07,02,16,16,21.70
2016,07,02,16,17,21.70
2016,07,02,16,18,21.70
2016,07,02,16,19,21.70
2016,07,02,16,20,21.70
2016,07,02,16,21,21.70
2016,07,02,16,22,21.80
2016,07,02,16,23,21.90
2016,07,02,16,24,22.00
2016,07,02,16,25,22.00
2016,07,02,16,26,22.00
2016,07,02,16,27,22.00
2016,07,02,16,28,22.00
2016,07,02,16,29,22.00
2016,07,02,16,30,22.00
2016,07,02,16,31,22.00
2016,07,02,16,32,22.00
2016,07,02,16,33,22.00
2016,07,02,16,34,22.00
2016,07,02,16,35,21.90
2016,07,02,16,36,21.70
2016,07,02,16,37,21.60
2016,07,02,16,38,21.50
2016,07,02,16,39,21.30
2016,07,02,16,40,21.20
2016,07,02,16,41,21.20
2016,07,02,16,42,21.10
2016,07,02,16,43,20.90
2016,07,02,16,44,20.90
2016,07,02,16,45,20.90
2016,07,02,16,46,20.90
2016,07,02,16,47,20.90
2016,07,02,16,48,20.90
2016,07,02,16,49,20.90
2016,07,02,16,50,21.00
2016,07,02,16,51,21.00
2016,07,02,16,52,21.10
2016,07,02,16,53,21.20
2016,07,02,16,54,21.30
2016,07,02,16,55,21.30
2016,07,02,16,56,21.40
2016,07,02,16,57,21.50
2016,07,02,16,58,21.60
2016,07,02,16,59,21.70
2016,07,02,17,00,21.80
2016,07,02,17,01,21.90
2016,07,02,17,02,22.00
2016,07,02,17,03,22.10
2016,07,02,17,04,22.20
2016,07,02,17,05,22.30
2016,07,02,17,06,22.40
2016,07,02,17,07,22.50
2016,07,02,17,08,22.60
2016,07,02,17,09,22.70
2016,07,02,17,10,22.70
2016,07,02,17,11,22.80
2016,07,02,17,12,22.90
2016,07,02,17,13,22.80
2016,07,02,17,14,22.80
2016,07,02,17,15,22.70
2016,07,02,17,16,22.80
2016,07,02,17,17,22.80
2016,07,02,17,18,22.90
2016,07,02,17,19,22.90